sat.trackr.live / text

‹ back to catalog

STARLINK-5170

NORAD 54062 · 2022-136M

PAYLOAD ACTIVE UNKNOWN

§ Identity

Operator
Country
US
Launch date
2022-10-20
Launch site
AFETR
Launch vehicle
Mass (kg)
RCS (m²)

Purposes: comms

External: N2YO · Heavens-Above · Gunter

§ Orbital elements

Epoch: 2026-09-20T10:07:23.492352Z

Period
93.79 min
Inclination
53.1596°
Eccentricity
0.0001309
Mean motion
15.35392428 rev/d
Perigee alt
458.9 km
Apogee alt
460.7 km
Semi-major
6,837.9 km
B*
7.9345e-6
RAAN
177.9267°
Arg perigee
90.1376°
Mean anomaly
269.9777°
Rev number
21,640

§ Raw data

STARLINK-51701 54062U 22136M   26263.42179968 -.00000104  00000+0  79345-5 0  99942 54062  53.1596 177.9267 0001309  90.1376 269.9777 15.35392428216408

JSON: /api/v1/satellites/54062 · /tle

For live sub-satellite position, see the globe view (requires WebGL).

§ Visibility from observer

Set your observer location to see the next 7 days of passes ≥ 10°. The values pass through the URL so the page stays shareable.

No JS? Fill the form by hand. The geolocation button needs JavaScript.